Location: Newark
(42.9277°N, 71.8621°W)
Time: 18:38:59
(UTC+00:00)

Transit 4A - Pass Details

Date: 16 May 2021
Orbit: 872 x 973 km, 66.8° (Epoch: 15 June)

Event Time Altitude Azimuth Distance (km) Brightness Sun altitude
Rises 06:42:05 0° 331° (NNW) 3,490 11.3 -22.2°
Reaches altitude 10° 06:44:38 10° 335° (NNW) 2,540 10.6 -22.0°
Maximum altitude 06:50:26 61° 56° (NE) 985 8.2 -21.4°
Drops below altitude 10° 06:56:10 10° 136° (SE) 2,515 10.0 -20.8°
Sets 06:58:41 0° 140° (SE) 3,454 10.7 -20.6°
